AX317 Weather Reports


time (UTC)temp
F
wind
direction
speed
knots
gust
knots
rain 1hr
in
rain 24hr
in
rain mn
in
humidity
%
barometer
mb
20260510171340 64 341 0.0 0.0 0.00 0.00 0.01 70 1009.1
20260510170839 64 320 0.0 0.0 0.00 0.00 0.01 72 1009.1
20260510170342 65 275 0.0 0.0 0.00 0.00 0.01 74 1009.1
20260510165840 64 354 0.0 0.0 0.00 0.00 0.01 75 1009.1
20260510165339 65 300 0.0 0.0 0.00 0.00 0.01 73 1009.1
20260510164839 67 284 0.0 0.0 0.00 0.00 0.01 72 1009.1
20260510164339 66 254 0.0 0.0 0.00 0.00 0.01 72 1009.1
20260510163840 65 201 0.0 0.0 0.00 0.00 0.01 73 1009.1
20260510163339 65 247 0.0 0.0 0.00 0.00 0.01 75 1009.1
20260510162839 64 284 0.0 0.0 0.00 0.00 0.01 76 1009.1
20260510162341 64 233 0.0 0.0 0.00 0.00 0.01 74 1009.1
20260510161839 64 260 0.0 0.0 0.00 0.00 0.01 75 1009.1
20260510161339 63 223 0.0 0.0 0.00 0.00 0.01 77 1009.1
20260510160839 64 60 0.0 0.0 0.00 0.00 0.01 74 1009.1
20260510160339 64 227 0.0 0.0 0.00 0.00 0.01 76 1009.1
20260510155839 62 310 0.0 0.0 0.00 0.00 0.01 77 1009.1
20260510155340 63 265 0.0 0.0 0.00 0.00 0.01 77 1009.5
20260510154839 62 251 0.0 0.0 0.00 0.00 0.01 79 1009.5
20260510154339 62 259 0.0 0.0 0.00 0.00 0.01 78 1009.5
20260510153839 62 25 0.0 0.0 0.00 0.00 0.01 79 1009.5
20260510153339 61 313 0.0 0.0 0.00 0.00 0.01 79 1009.5
20260510152840 61 53 0.0 0.0 0.00 0.00 0.01 81 1009.5
20260510152340 60 306 0.0 0.0 0.00 0.00 0.01 81 1009.1
20260510151840 61 255 0.0 0.0 0.00 0.00 0.01 78 1009.1
20260510151339 62 256 0.0 0.0 0.00 0.00 0.01 79 1009.1
20260510150839 60 219 0.0 0.0 0.00 0.00 0.01 80 1009.1
20260510150340 59 255 0.0 0.0 0.00 0.00 0.01 83 1009.1
20260510145839 58 197 0.0 0.0 0.00 0.00 0.01 84 1009.1
20260510145339 59 133 0.0 0.0 0.00 0.00 0.01 85 1009.5
20260510144839 58 252 0.0 0.0 0.00 0.00 0.01 85 1009.5
20260510144339 58 198 0.0 0.0 0.00 0.00 0.01 86 1009.5
20260510143839 58 306 0.0 0.0 0.00 0.00 0.01 87 1009.5
20260510143340 58 220 0.0 0.0 0.00 0.00 0.01 85 1009.5
20260510142840 58 32 0.0 0.0 0.00 0.00 0.01 85 1009.1
20260510142347 57 225 0.0 0.0 0.00 0.00 0.01 85 1009.5
20260510141840 57 203 0.0 0.0 0.00 0.00 0.01 85 1009.5
20260510141340 57 317 0.0 0.0 0.00 0.00 0.01 85 1009.1
20260510140839 57 176 0.0 0.0 0.00 0.00 0.01 87 1009.5
20260510140339 57 250 0.0 0.0 0.00 0.00 0.01 88 1009.1
20260510135839 56 254 0.0 0.0 0.00 0.00 0.01 89 1009.5
20260510135339 56 9 0.0 0.0 0.00 0.00 0.01 89 1009.5
20260510134839 56 9 0.0 0.0 0.00 0.00 0.01 90 1009.5
20260510134339 55 9 0.0 0.0 0.00 0.00 0.01 92 1009.5
20260510133848 55 110 0.0 0.0 0.00 0.00 0.01 92 1009.5
20260510132339 55 158 0.0 0.0 0.00 0.00 0.01 92 1009.5
20260510131839 55 175 0.0 0.0 0.00 0.00 0.01 92 1009.5
20260510131340 55 175 0.0 0.0 0.00 0.00 0.01 92 1009.5
20260510130839 55 169 0.0 0.0 0.00 0.00 0.01 92 1009.5
20260510130339 55 302 0.0 0.0 0.00 0.00 0.01 92 1009.5
20260510125841 56 269 0.0 0.0 0.00 0.00 0.01 92 1009.1
20260510125340 55 241 0.0 0.0 0.00 0.00 0.01 93 1009.1
20260510124339 54 96 0.0 0.0 0.00 0.00 0.01 94 1009.5
20260510122840 51 96 0.0 0.0 0.00 0.00 0.01 100 1009.5
20260510115840 51 96 0.0 0.0 0.00 0.00 0.01 100 1009.5
20260510114840 51 262 0.0 0.0 0.00 0.00 0.01 100 1009.5
20260510103840 51 262 0.0 0.0 0.00 0.00 0.01 100 1008.5
20260510103339 51 306 0.0 0.0 0.00 0.00 0.01 100 1008.1
20260510100339 50 306 0.0 0.0 0.00 0.00 0.01 100 1007.8
20260510090839 50 306 0.0 0.0 0.00 0.00 0.01 100 1007.1
20260510084839 50 306 0.0 0.0 0.00 0.00 0.01 100 1007.8
20260510024339 49 275 0.0 0.0 0.00 0.00 0.34 98 1008.8
20260510021339 49 287 0.0 0.0 0.00 0.00 0.34 98 1009.1
20260510020840 49 264 0.0 0.0 0.00 0.00 0.34 98 1008.8
20260510020339 49 247 0.0 0.0 0.00 0.00 0.34 98 1008.8
20260510015839 49 289 0.0 0.0 0.00 0.00 0.34 98 1008.8
20260510015339 49 300 0.0 0.0 0.00 0.00 0.34 98 1009.1
20260510014839 49 263 0.0 0.0 0.00 0.00 0.34 98 1008.8
20260510014339 49 259 0.0 0.0 0.00 0.00 0.34 98 1008.8
20260510013839 49 259 0.0 0.0 0.00 0.00 0.34 98 1008.8
20260510013339 49 278 0.0 0.0 0.00 0.00 0.34 98 1008.8
20260510012840 49 272 0.0 0.0 0.00 0.00 0.34 98 1008.8
20260510011839 49 279 0.0 0.0 0.00 0.00 0.34 98 1008.8
20260510011340 49 269 0.0 0.0 0.00 0.00 0.34 97 1008.8
20260509215339 49 269 0.0 0.0 0.00 0.00 0.34 97 1008.5
20260509214839 49 269 0.0 0.0 0.00 0.00 0.34 97 1008.5
20260509214339 49 261 0.0 0.0 0.00 0.00 0.34 97 1008.5
20260509213839 49 334 0.0 0.0 0.00 0.00 0.34 97 1008.5
20260509213340 49 345 0.0 0.0 0.00 0.00 0.34 97 1008.8
20260509212840 50 285 0.0 0.0 0.85 0.00 0.34 97 1008.8
20260509201840 49 323 0.0 0.0 0.00 0.00 0.31 97 1008.8
20260509195839 49 323 0.0 0.0 0.00 0.00 0.31 97 1009.1
20260509192839 49 272 0.0 0.0 0.00 0.00 0.29 97 1009.5
20260509192339 49 272 0.0 0.0 0.00 0.00 0.29 97 1009.5
20260509191840 49 271 0.0 0.0 0.63 0.00 0.29 97 1009.5
20260509190341 48 77 0.0 0.0 0.00 0.00 0.27 97 1009.8
20260509185839 48 312 0.0 0.0 0.12 0.00 0.27 97 1009.8
20260509185339 48 168 0.0 0.0 0.00 0.00 0.26 97 1009.8
20260509184845 48 289 0.0 0.0 0.12 0.00 0.26 97 1009.8
20260509184339 48 223 0.0 0.0 0.00 0.00 0.25 97 1009.8
20260509183841 48 284 0.0 0.0 0.00 0.00 0.25 97 1009.8
20260509183339 48 315 0.0 0.0 0.00 0.00 0.25 97 1009.8
20260509182839 48 55 0.0 0.0 0.12 0.00 0.25 97 1009.8
20260509182339 48 259 0.0 0.0 0.00 0.00 0.24 97 1010.2
20260509181840 48 292 0.0 0.0 0.12 0.00 0.24 97 1010.2
20260509181339 48 264 0.0 0.0 0.00 0.00 0.23 97 1010.2
20260509180839 48 236 0.0 0.0 0.22 0.00 0.23 97 1010.2
20260509175339 48 292 0.0 0.0 0.00 0.00 0.22 97 1010.5
20260509173339 48 336 0.0 0.0 1.21 0.00 0.19 97 1010.5